Hourly Data Report for May 03, 2004

TORONTO CITY
ONTARIO

43°40'00.000" N
79°24'00.000" W
112.50 m
6158355
71508
XTO

Download Data

Hourly Data (May 2004)
Hourly Data Report for May 3, 2004
TIME
LST
Temp Definition
°C
Dew Point Definition
°C
Rel Hum Definition
%
Precip. Amount Definition
mm

Wind Dir Definition
10's deg

Wind Spd Definition
km/h
Visibility Definition
km
Stn Press Definition
kPa
Hmdx Definition


Wind Chill Definition


Weather Definition


00:00 3.2 -0.5 77   LegendMM LegendMM LegendMM 100.17     LegendNANA
01:00 3.4 -0.5 76   LegendMM LegendMM LegendMM 100.20     LegendNANA
02:00 3.5 -0.9 73   LegendMM LegendMM LegendMM 100.23     LegendNANA
03:00 3.7 -0.4 75   LegendMM LegendMM LegendMM 100.25     LegendNANA
04:00 3.8 -0.2 75   LegendMM LegendMM LegendMM 100.27     LegendNANA
05:00 3.7 -0.1 76   LegendMM LegendMM LegendMM 100.29     LegendNANA
06:00 3.5 -0.1 77   LegendMM LegendMM LegendMM 100.34     LegendNANA
07:00 4.3 0.2 75   LegendMM LegendMM LegendMM 100.46     LegendNANA
08:00 5.1 0.3 71   LegendMM LegendMM LegendMM 100.52     LegendNANA
09:00 6.0 0.7 69   LegendMM LegendMM LegendMM 100.48     LegendNANA
10:00 7.2 -0.1 60   LegendMM LegendMM LegendMM 100.49     LegendNANA
11:00 9.0 -1.0 49   LegendMM LegendMM LegendMM 100.50     LegendNANA
12:00 6.2 1.1 70   LegendMM LegendMM LegendMM 100.50     LegendNANA
13:00 7.9 0.7 60   LegendMM LegendMM LegendMM 100.44     LegendNANA
14:00 9.0 1.0 57   LegendMM LegendMM LegendMM 100.39     LegendNANA
15:00 9.2 -0.6 50   LegendMM LegendMM LegendMM 100.35     LegendNANA
16:00 9.0 -1.8 47   LegendMM LegendMM LegendMM 100.34     LegendNANA
17:00 7.9 0.9 61   LegendMM LegendMM LegendMM 100.38     LegendNANA
18:00 6.7 0.5 65   LegendMM LegendMM LegendMM 100.41     LegendNANA
19:00 5.2 0.2 70   LegendMM LegendMM LegendMM 100.46     LegendNANA
20:00 4.3 -0.5 71   LegendMM LegendMM LegendMM 100.49     LegendNANA
21:00 4.2 -0.1 74   LegendMM LegendMM LegendMM 100.53     LegendNANA
22:00 3.3 -0.6 76   LegendMM LegendMM LegendMM 100.49     LegendNANA
23:00 2.6 -1.0 77   LegendMM LegendMM LegendMM 100.45     LegendNANA

Notes on Data Quality.

Legend

  • E = Estimated
  • M = Missing
  • NA = Not Available*
  • [empty] = Indicates an unobserved value
Date modified: